Volver al catálogo

STARLINK-3312

ActivoComunicacionesVLEO
NORAD 50850·PAYLOAD·🇺🇸 United States

Lanzado Jan 6, 2022 desde Cape Canaveral Space Force Station

Loading…

Próximos Pases (próximas 24 horas)

TLE

ActualizadoSource: CelesTrak SupGP

Época: Sep 15, 2026, 02:13 UTC

1 50850C 22001AZ  26258.09284722  .00035043  00000+0  13670-2 0  2581
2 50850  53.1540   0.1762 0001379 295.5200  94.9716 15.25379882    14

Sigue STARLINK-3312 en tiempo real con AllMySat

Download on the App Store